Flag for U.S.A. Weather past 2 weeks in Key West, Florida, U.S.A.

Now
76 °F

Clear.


Feels Like: 77 °F
Forecast: 73 / 78 °F
Wind: 13 mph from Southeast

Location: Key West International Airport

Current Time: Dec 21, 2014 at 8:51:06 PM

Latest Report: Dec 21, 2014 at 7:53 PM


Visibility: 10 mi

Pressure: 30.02 "Hg

Humidity: 80%

Dew point: 69 °F

Location of Key WestLocation

Historic Weather in Key West — Graph

°F

Key West temperature yesterday

Maximum temperature yesterday: 79 °F (at 2:53 PM)
Minimum temperature yesterday: 69 °F (at 12:53 AM)
Average temperature yesterday: 75 °F

Past Weeks' High & Low Weather Summary

 TemperatureHumidityPressure
High79 °F (Dec 20, 2:53 PM)94% (Dec 19, 5:53 AM)30.25 "Hg (Dec 19, 5:53 AM)
Low57 °F (Dec 11, 1:53 AM)40% (Dec 10, 9:53 AM)30.00 "Hg (Dec 20, 3:53 PM)
Average69 °F73%30.10 "Hg
* Reported Dec 6 6:53 PM — Dec 21 6:53 PM, Key West, Weather by CustomWeather, © 2014

Note: Actual official high and low records may vary slightly from our data, if they occured in-between our weather recording intervals... More about our weather records

Advertising

Key West weather history for previous 24 hours

 ConditionsComfort  
Time TempWeatherWind HumidityBarometerVisibility
6:53 PM
Dec 21
76 °FClear.13 mph80%30.01 "Hg10 mi
5:53 PM77 °FPassing clouds.12 mph74%30.01 "Hg10 mi
4:53 PM77 °FPartly sunny.12 mph74%30.01 "Hg10 mi
3:53 PM78 °FScattered clouds.12 mph71%30.01 "Hg10 mi
2:53 PM78 °FScattered clouds.13 mph74%30.00 "Hg10 mi
1:53 PM79 °FOvercast.13 mph74%30.02 "Hg10 mi
12:53 PM77 °FOvercast.9 mph79%30.05 "Hg10 mi
11:53 AM78 °FOvercast.10 mph79%30.07 "Hg10 mi
10:53 AM78 °FPassing clouds.12 mph79%30.09 "Hg10 mi
9:53 AM78 °FPartly sunny.12 mph74%30.09 "Hg10 mi
8:53 AM77 °FSunny.12 mph77%30.08 "Hg10 mi
7:53 AM75 °FPartly sunny.8 mph85%30.07 "Hg10 mi
6:53 AM75 °FPassing clouds.8 mph82%30.06 "Hg10 mi
5:53 AM75 °FClear.7 mph79%30.05 "Hg10 mi
4:53 AM75 °FPassing clouds.8 mph79%30.03 "Hg10 mi
3:53 AM74 °FClear.8 mph85%30.03 "Hg10 mi
2:53 AM73 °FPartly cloudy.3 mph88%30.04 "Hg10 mi
1:53 AM73 °FClear.6 mph88%30.04 "Hg10 mi
12:53 AM73 °FClear.8 mph84%30.06 "Hg10 mi
11:53 PM
Dec 20
73 °FClear.6 mph88%30.08 "Hg10 mi
10:53 PM73 °FPassing clouds.5 mph88%30.08 "Hg10 mi
9:53 PM75 °FPassing clouds.7 mph82%30.08 "Hg10 mi
8:53 PM75 °FOvercast.7 mph85%30.06 "Hg10 mi
Weather by CustomWeather, © 2014

See weather overviewHow to use our weather pages